Preview of NWS' New Version of Forecast
This preview is not operational and should not be used for support decisions.

Regional Weather Roundup (RWR)

Issued by Gray - Portland, ME (GYX)

                            
000
ASUS41 KGYX 202305
RWRGYX
WEATHER ROUNDUP FOR MAINE AND NEW HAMPSHIRE
NATIONAL WEATHER SERVICE GRAY ME
600 PM EST SUN JAN 20 2019

MEZ002-005-006-010-012-015-018-020-021-024-026-027-029-210000-
MAINE
  
CITY           SKY/WX    TMP DP  RH WIND       PRES   REMARKS
PORTLAND       LGTSLEET  14  11  87 N13G25    29.30F FOG     WCI   0  
SANFORD        LGT SNOW  17  14  88 NW7       29.31R FOG              
BAR HARBOR     LGT SNOW  24  23  96 NW6       29.20S FOG              
WISCASSET      LGT SNOW   8   5  87 N9        29.32S FOG              
ROCKLAND       LGT SNOW  11   8  88 NW13G20   29.22S FOG     WCI  -4  
FRYEBURG       LGT SNOW  14  12  92 SW3       29.32R FOG              
LEWISTONAUBURN LGT SNOW  13  11  92 N12       29.31F FOG     WCI  -1  
AUGUSTA        LGT SNOW   7   4  87 N20       29.32S VSB 3/4 WCI -13  
WATERVILLE     LGT SNOW N/A N/A N/A MISG        N/A                   
BANGOR         LGTSLEET   8   4  83 N20       29.30F FOG     WCI -11  
GREENVILLE       N/A      1  -7  68 N15G29    29.27F WCI -18          
MILLINOCKET    MIX PCPN   7   2  80 NW12      29.36F VSB 1   WCI  -8  
HOULTON        MIX PCPN  14  12  92 N8        29.32F VSB 1/4          
PRESQUE ISLE   LGT SNOW  10   6  84 N18       29.41F VSB 1   WCI  -8  
FRENCHVILLE    HVY SNOW  12   6  77 N17G28    29.45F VSB 1/4 WCI  -5  
CARIBOU        HVY SNOW  11   6  81 N17       29.41F VSB 1/4 WCI  -6  
$$

NHZ002-005-008-009-011-012-014-210000-
NEW HAMPSHIRE
  
CITY           SKY/WX    TMP DP  RH WIND       PRES   REMARKS
PORTSMOUTH     LGT SNOW  19  17  90 NW10      29.30S FOG     WCI   8  
ROCHESTER      CLOUDY    19  16  88 NW10      29.29S WCI   7          
NASHUA         LGT SNOW  23  20  88 NW14      29.34R FOG     WCI  11  
MANCHESTER     FLURRIES  22  17  81 NW14      29.32S WCI   9          
CONCORD        LGT SNOW  20  16  84 NW16G25   29.34R FOG     WCI   6  
LACONIA        LGT SNOW  20  17  88 W8        29.33R FOG              
PLYMOUTH       LGT SNOW  13   8  79 W17G33    29.37R WCI  -3          
BERLIN         SNOW       8   3  80 NW6       29.40R VSB 1/2          
WHITEFIELD     LGT SNOW   8   2  76 W13       29.44R VSB 1   WCI  -8  
JAFFREY        CLOUDY    19  13  77 N9G18     29.33R                  
KEENE          CLOUDY    16   8  71 NW12G20   29.44R WCI   3          
LEBANON        LGT SNOW  11   1  64 NW20G26   29.48R WCI  -7          
MT WASHINGTON  NOT AVBL                                               
$$

VTZ005-007-008-210000-
VERMONT
  
CITY           SKY/WX    TMP DP  RH WIND       PRES   REMARKS
ST JOHNSBURY     N/A      5  -1  76 MISG      29.51R                  
MONTPELIER     LGT SNOW  -2  -6  83 NW18G28   29.54R FOG     WCI -24  
BURLINGTON     LGT SNOW   1  -5  75 NW15      29.70R WCI -18          
$$

MAZ007-012-024-CTZ003-RIZ002-NYZ038-NYZ072-210000-
SOUTHERN NEW ENGLAND AND NY
  
CITY           SKY/WX    TMP DP  RH WIND       PRES   REMARKS
BOSTON         FRZ DRZL  25  21  85 NW14G25   29.33R FOG     WCI  13  
WORCESTER      MIX PCPN  21  16  81 NW17G31   29.30R WCI   7          
NANTUCKET      RAIN      31  31 100 N26G33    29.24R FOG     WCI  17  
PROVIDENCE     FRZ DRZL  27  24  89 N12G17    29.32R WCI  17          
HARTFORD       MOCLDY    17   7  64 NW20G32   29.46R WCI   1          
ALBANY         FLURRIES   8  -4  58 W21G35    29.65R WCI -12          
NEW YORK CITY  FAIR      22  11  62 NW33G45   29.55R WCI   3          
$$

ANZ081-ANZ082-ANZ150-NHZ014-MEZ023>029-210000-
COASTAL MARINE OBSERVATIONS
  
STATION/POSITION TIME  TEMP    WIND        PRES    WAVE
                       AIR SEA DIR/SP/G            HT/PER
                 (UTC) (F)     (DEG/KT/KT) (MB)    (FT/S)
MOUNT DESERT ROC 2300   42     130/  3/  5  987.1F
MATINICUS ROCK   2200   36      30/ 18/ 20  986.9F
ISLE OF SHOALS   2200   18     350/ 21/ 23  991.4F
JEFFREYS LEDGE   2238      42                N/A    11/10
CASHES LEDGE BUO 2250      40               986.8R  10/ 8
$$

.............KEY..............
   WCI - WIND CHILL
   TC  - TEMPERATURE IN CELSIUS
   VSB - VISIBILITY IN MILES
   HX  - HEAT INDEX
   FAIR- INDICATES FEW OR NO CLOUDS BELOW 12,000 FT, WITH NO 
         SIGNIFICANT WEATHER AND/OR OBSTRUCTIONS TO VISIBILITY.